Погода в Тхэбэке

Южная Корея     37°10′30″N   128°59′23″E
темп.,
°C
ветер,
м/с
пор.,
м/с
влажн.,
%
обл.,
%
осадки,
мм/ч
давл.,
гПа
погр.,
м
13 июня, вс
вс1300:00+15ююз1195100 0.0 101313
03:00+15зюз1195100 0.0 101212
06:00+17з1193100 0.0 101115
09:00+22св2267100 0.0 1011679
12:00+26всв2246100 0.0 10091696
15:00+25в3255100 0.1 10081230
18:00+21всв22701 0.1 1008421
21:00+15ююз11962 0.2 100911
14 июня, пн
пн1400:00+16юз11965 0.0 100811
03:00+15зсз11964 0.0 100811
06:00+15юз1196100 0.0 100821
09:00+21в1174100 0.0 1007576
12:00+26св3250100 0.0 10061713
15:00+22в3372100 0.1 1006589
18:00+20всв2284100 0.2 1006437
21:00+16вюв1199100 0.2 100813
15 июня, вт
вт1500:00+15ююв1299100 0.0 100760
03:00+16ю119697 0.1 100631
06:00+16в119899 0.9 100661
09:00+17всв1197100 1.1 1007175
12:00+17всв2298100 2.8 1007264
15:00+17всв129996 3.9 1007223
18:00+17всв119986 0.9 1008189
21:00+16в1110099 1.1 1009194
16 июня, ср
ср1600:00+16в1110099 0.1 1009220
03:00+16в1110099 0.3 1009284
06:00+16в1110099 0.2 1009249
09:00+16всв119897 0.5 1010224
12:00+17всв229776 0.5 1010315
15:00+19всв228680 1.0 1009632
18:00+17всв239479 0.4 1010374
21:00+15всв11100100 0.5 101199
17 июня, чт
чт1700:00+14юв1198100 0.0 101060
03:00+13юз1198100 0.0 100913
06:00+14ююв2195100 0.0 100840
09:00+21юв116586 0.0 1008591
12:00+26вюв225083 0.0 10051781
15:00+23вюв136593 0.2 1004645
18:00+22вюв12745 0.1 1004204
21:00+17ююз229163 0.1 100538